Location: Unspecified
(0.0000°N, 0.0000°E)
Time: 17:33:25
(UTC+00:00)

Vanguard 3 - Pass Details

Date: 08 December 2017
Orbit: 508 x 3264 km, 33.3° (Epoch: 19 June)

Event Time Altitude Azimuth Distance (km) Brightness Sun altitude
Rises 07:33:01 0° 222° (SW) 6,285 11.5 23.2°
Reaches altitude 10° 07:38:43 10° 211° (SSW) 4,777 11.1 24.5°
Maximum altitude 07:48:31 27° 159° (SSE) 2,644 10.7 26.7°
Drops below altitude 10° 07:54:49 10° 104° (ESE) 2,999 11.6 28.1°
Sets 07:57:27 0° 90° (E) 3,641 11.4 28.7°
